Change the Weather History Date:

Sunday, March 10, 2013

  Actual Average (LGKO) Record (LGKO)
Temperature  
Mean Temperature 60 °F -  
Max Temperature 68 °F 59 °F 69 °F (2002)
Min Temperature 51 °F 49 °F 39 °F (2011)
Degree Days  
Heating Degree Days 6    
Growing Degree Days 10 (Base 50)    
Moisture  
Dew Point 53 °F    
Average Humidity 82    
Maximum Humidity 100    
Minimum Humidity 56    
Precipitation  
Precipitation 0.00 in - - ()
Sea Level Pressure  
Sea Level Pressure 29.86 in    
Wind  
Wind Speed 3 mph ()    
Max Wind Speed 14 mph    
Max Gust Speed -    
Visibility 6.0 miles    
Events Rain    
Averages and records for this station are not official NWS values.
T = Trace of Precipitation, MM = Missing Value Source: Averaged Metar Reports

Daily Weather History Graph

Daily Weather History Graph

Search for Another Location

Airport or City:

Trip Planner

Search our weather history database for the weather conditions in past years. The results will help you decide how hot, cold, wet, or windy it might be!

Date:

Astronomy

Mar. 10, 2013 Rise Set
Actual Time 6:27 AM EET 6:11 PM EET
Civil Twilight 6:01 AM EET 6:37 PM EET
Nautical Twilight 5:31 AM EET 7:08 PM EET
Astronomical Twilight 5:01 AM EET 7:38 PM EET
Moon 5:14 AM EET (3/10) 4:59 PM EET (3/10)
Length of Visible Light 12h 36m
Length of Day
11h 44m
Waning Crescent, 2% of the Moon is Illuminated
Mar 10
Waning Crescent
Mar 11
New
Mar 19
First Quarter
Mar 27
Full
Apr 3
Last Quarter

Hourly Weather History & Observations

Time (EET) Temp. Dew Point Humidity Pressure Visibility Wind Dir Wind Speed Gust Speed Precip Events Conditions
12:20 AM 53.6 °F 51.8 °F 94% 29.86 in 6.2 mi Calm Calm - N/A   Mostly Cloudy
12:50 AM 53.6 °F 53.6 °F 100% 29.86 in 6.2 mi Calm Calm - N/A   Mostly Cloudy
1:20 AM 53.6 °F 53.6 °F 100% 29.86 in 6.2 mi WSW 2.3 mph - N/A   Mostly Cloudy
1:50 AM 53.6 °F 53.6 °F 100% 29.86 in 6.2 mi Variable 1.2 mph - N/A   Mostly Cloudy
2:20 AM 53.6 °F 51.8 °F 94% 29.86 in 6.2 mi Calm Calm - N/A   Mostly Cloudy
2:50 AM 51.8 °F 51.8 °F 100% 29.83 in 4.3 mi Calm Calm - N/A   Mostly Cloudy
3:20 AM 53.6 °F 51.8 °F 94% 29.83 in 4.3 mi West 2.3 mph - N/A   Mostly Cloudy
3:50 AM 53.6 °F 53.6 °F 100% 29.83 in 4.3 mi Calm Calm - N/A   Mostly Cloudy
4:20 AM 53.6 °F 53.6 °F 100% 29.83 in 6.2 mi Calm Calm - N/A   Mostly Cloudy
4:50 AM 53.6 °F 53.6 °F 100% 29.86 in 6.2 mi Calm Calm - N/A   Mostly Cloudy
5:20 AM 53.6 °F 53.6 °F 100% 29.86 in 6.2 mi Calm Calm - N/A   Mostly Cloudy
5:50 AM 53.6 °F 53.6 °F 100% 29.86 in 6.2 mi West 2.3 mph - N/A   Mostly Cloudy
6:20 AM 53.6 °F 53.6 °F 100% 29.86 in 5.0 mi Calm Calm - N/A   Mostly Cloudy
6:50 AM 53.6 °F 53.6 °F 100% 29.86 in 4.3 mi SW 2.3 mph - N/A   Mostly Cloudy
7:20 AM 55.4 °F 53.6 °F 94% 29.86 in 5.0 mi ENE 1.2 mph - N/A   Mostly Cloudy
7:50 AM 55.4 °F 55.4 °F 100% 29.86 in 6.2 mi Variable 1.2 mph - N/A   Mostly Cloudy
8:20 AM 57.2 °F 55.4 °F 94% 29.89 in 6.2 mi Variable 1.2 mph - N/A   Mostly Cloudy
8:50 AM 60.8 °F 55.4 °F 82% 29.89 in 6.2 mi Variable 2.3 mph - N/A   Mostly Cloudy
9:20 AM 62.6 °F 53.6 °F 72% 29.86 in 6.2 mi ESE 3.5 mph - N/A   Mostly Cloudy
9:50 AM 64.4 °F 55.4 °F 73% 29.89 in 6.2 mi Variable 2.3 mph - N/A   Mostly Cloudy
10:20 AM 64.4 °F 53.6 °F 68% 29.89 in 6.2 mi South 3.5 mph - N/A   Mostly Cloudy
10:50 AM 64.4 °F 51.8 °F 64% 29.89 in 6.2 mi SSW 11.5 mph - N/A   Mostly Cloudy
11:20 AM 64.4 °F 51.8 °F 64% 29.86 in 6.2 mi South 10.4 mph - N/A   Mostly Cloudy
11:50 AM 68.0 °F 51.8 °F 56% 29.86 in 6.2 mi South 10.4 mph - N/A   Mostly Cloudy
12:20 PM 68.0 °F 53.6 °F 60% 29.86 in 6.2 mi South 10.4 mph - N/A   Mostly Cloudy
12:50 PM 68.0 °F 51.8 °F 56% 29.86 in 6.2 mi South 10.4 mph - N/A   Mostly Cloudy
1:20 PM 68.0 °F 51.8 °F 56% 29.86 in 6.2 mi SSW 10.4 mph - N/A   Mostly Cloudy
1:50 PM 66.2 °F 51.8 °F 60% 29.86 in 6.2 mi SSW 12.7 mph - N/A   Mostly Cloudy
2:20 PM 68.0 °F 53.6 °F 60% 29.86 in 6.2 mi SSW 13.8 mph - N/A   Mostly Cloudy
2:50 PM 66.2 °F 53.6 °F 64% 29.86 in 6.2 mi SW 13.8 mph - N/A   Mostly Cloudy
3:20 PM 66.2 °F 53.6 °F 64% 29.86 in 6.2 mi SSW 13.8 mph - N/A   Scattered Clouds
3:50 PM 66.2 °F 53.6 °F 64% 29.83 in 6.2 mi SSW 13.8 mph - N/A   Scattered Clouds
4:20 PM 66.2 °F 53.6 °F 64% 29.86 in 6.2 mi SSW 12.7 mph - N/A   Scattered Clouds
4:50 PM 64.4 °F 53.6 °F 68% 29.86 in 6.2 mi South 11.5 mph - N/A   Scattered Clouds
5:20 PM 64.4 °F 51.8 °F 64% 29.86 in 6.2 mi SW 9.2 mph - N/A   Scattered Clouds
5:50 PM 62.6 °F 51.8 °F 68% 29.86 in 6.2 mi SSW 9.2 mph - N/A Rain Light Rain Showers
6:12 PM 60.8 °F 53.6 °F 77% 29.86 in 6.2 mi SSE 6.9 mph - N/A   Mostly Cloudy
6:20 PM 60.8 °F 51.8 °F 72% 29.86 in 6.2 mi SSE 5.8 mph - N/A   Mostly Cloudy
6:50 PM 59.0 °F 51.8 °F 77% 29.86 in 6.2 mi NE 3.5 mph - N/A   Mostly Cloudy
7:20 PM 57.2 °F 53.6 °F 88% 29.86 in 6.2 mi North 3.5 mph - N/A   Mostly Cloudy
7:50 PM 57.2 °F 53.6 °F 88% 29.86 in 6.2 mi WSW 4.6 mph - N/A   Mostly Cloudy
8:20 PM 57.2 °F 53.6 °F 88% 29.86 in 6.2 mi Variable 2.3 mph - N/A   Mostly Cloudy
8:50 PM 57.2 °F 53.6 °F 88% 29.86 in 6.2 mi Calm Calm - N/A   Mostly Cloudy
9:20 PM 53.6 °F 51.8 °F 94% 29.86 in 6.2 mi Variable 1.2 mph - N/A   Mostly Cloudy
9:50 PM 53.6 °F 51.8 °F 94% 29.86 in 6.2 mi Calm Calm - N/A   Mostly Cloudy
10:20 PM 53.6 °F 51.8 °F 94% 29.86 in 6.2 mi Calm Calm - N/A   Mostly Cloudy
10:50 PM 53.6 °F 51.8 °F 94% 29.86 in 6.2 mi Calm Calm - N/A   Scattered Clouds
11:20 PM 53.6 °F 51.8 °F 94% 29.86 in 6.2 mi Variable 2.3 mph - N/A   Scattered Clouds
11:50 PM 55.4 °F 50.0 °F 82% 29.83 in 6.2 mi East 4.6 mph - N/A   Scattered Clouds